Location: Kaikalui
(16.5250°N, 81.1500°E)
Time: 15:38:27
(UTC+00:00)

Cosmos 1441 Rocket - Pass Details

Date: 14 April 2026
Orbit: 411 x 433 km, 81.1° (Epoch: 11 May)

Event Time Altitude Azimuth Distance (km) Brightness Sun altitude
Rises 13:23:13 0° 16° (NNE) 2,398 6.6 -8.5°
Reaches altitude 10° 13:25:44 10° 36° (NE) 1,526 5.4 -9.1°
Maximum altitude 13:28:04 18° 81° (E) 1,134 4.4 -9.6°
Enters shadow 13:29:31 14° 113° (ESE) 1,296 4.6 -10.0°
